Time,TemperatureF,DewpointF,PressureIn,WindDirection,WindDirectionDegrees,WindSpeedMPH,WindSpeedGustMPH,Humidity,HourlyPrecipIn,Conditions,Clouds,dailyrainin,SoftwareType,DateUTC
2013-02-17 00:00:00,19.8,16.1,30.03,SSE,157,4.7,11.2,85,0.00,,,0.00,CWS Microserver 1.4,2013-02-17 06:00:00,
2013-02-17 00:05:00,20.0,16.1,30.02,SSE,157,8.9,11.9,84,0.00,,,0.00,CWS Microserver 1.4,2013-02-17 06:05:00,
2013-02-17 00:10:00,20.0,16.1,30.02,South,179,7.2,11.9,84,0.00,,,0.00,CWS Microserver 1.4,2013-02-17 06:10:00,
2013-02-17 00:15:00,20.0,16.2,30.02,South,179,9.5,13.1,85,0.00,,,0.00,CWS Microserver 1.4,2013-02-17 06:15:00,
2013-02-17 00:20:00,20.3,16.5,30.02,SSE,166,7.7,13.7,84,0.00,,,0.00,CWS Microserver 1.4,2013-02-17 06:20:00,
2013-02-17 00:25:00,20.2,16.3,30.02,SSE,160,12.3,14.7,84,0.00,,,0.00,CWS Microserver 1.4,2013-02-17 06:25:00,
2013-02-17 00:30:00,20.0,16.2,30.02,South,174,9.3,14.7,84,0.00,,,0.00,CWS Microserver 1.4,2013-02-17 06:30:00,
2013-02-17 00:35:00,20.3,16.4,30.02,SSE,164,8.5,17.5,84,0.00,,,0.00,CWS Microserver 1.4,2013-02-17 06:35:00,
2013-02-17 00:39:00,20.2,16.3,30.02,South,186,7.8,17.5,84,0.00,,,0.00,CWS Microserver 1.4,2013-02-17 06:39:00,
2013-02-17 00:44:00,19.8,16.0,30.02,South,170,10.6,13.5,84,0.00,,,0.00,CWS Microserver 1.4,2013-02-17 06:44:00,
2013-02-17 00:49:00,19.6,15.8,30.02,South,183,8.4,12.2,85,0.00,,,0.00,CWS Microserver 1.4,2013-02-17 06:49:00,
2013-02-17 00:54:00,19.6,15.9,30.02,South,181,8.8,12.2,85,0.00,,,0.00,CWS Microserver 1.4,2013-02-17 06:54:00,
2013-02-17 00:59:00,19.4,15.7,30.02,South,181,6.6,11.4,85,0.00,,,0.00,CWS Microserver 1.4,2013-02-17 06:59:00,
2013-02-17 01:04:00,19.4,15.7,30.02,South,170,6.0,11.6,85,0.00,,,0.00,CWS Microserver 1.4,2013-02-17 07:04:00,
2013-02-17 01:09:00,19.6,16.1,30.02,South,191,6.8,11.6,86,0.00,,,0.00,CWS Microserver 1.4,2013-02-17 07:09:00,
2013-02-17 01:14:00,19.8,16.1,30.01,South,183,9.0,12.0,85,0.00,,,0.00,CWS Microserver 1.4,2013-02-17 07:14:00,
2013-02-17 01:19:00,20.0,16.3,30.01,South,180,12.6,14.6,85,0.00,,,0.00,CWS Microserver 1.4,2013-02-17 07:19:00,
2013-02-17 01:24:00,20.3,16.5,30.01,South,177,13.3,14.6,84,0.00,,,0.00,CWS Microserver 1.4,2013-02-17 07:24:00,
2013-02-17 01:29:00,20.5,16.4,30.01,South,183,10.1,14.5,84,0.00,,,0.00,CWS Microserver 1.4,2013-02-17 07:29:00,
2013-02-17 01:34:00,20.5,16.5,30.01,South,178,11.6,14.4,84,0.00,,,0.00,CWS Microserver 1.4,2013-02-17 07:34:00,
2013-02-17 01:39:00,20.7,16.7,30.01,South,177,12.0,15.2,84,0.00,,,0.00,CWS Microserver 1.4,2013-02-17 07:39:00,
2013-02-17 01:44:00,20.7,16.7,30.01,South,185,10.4,15.2,84,0.00,,,0.00,CWS Microserver 1.4,2013-02-17 07:44:00,
2013-02-17 01:49:00,20.7,16.7,30.00,South,182,9.7,13.9,84,0.00,,,0.00,CWS Microserver 1.4,2013-02-17 07:49:00,
2013-02-17 01:55:00,20.7,16.7,30.00,South,183,12.3,15.5,84,0.00,,,0.00,CWS Microserver 1.4,2013-02-17 07:55:00,
2013-02-17 01:59:00,20.5,16.5,30.00,South,181,11.7,15.5,84,0.00,,,0.00,CWS Microserver 1.4,2013-02-17 07:59:00,
2013-02-17 02:04:00,20.5,16.5,30.01,South,183,8.1,14.5,84,0.00,,,0.00,CWS Microserver 1.4,2013-02-17 08:04:00,
2013-02-17 02:10:00,20.3,16.4,30.01,South,188,9.5,12.5,84,0.00,,,0.00,CWS Microserver 1.4,2013-02-17 08:10:00,
2013-02-17 02:14:00,20.5,16.5,30.00,South,179,8.2,12.8,84,0.00,,,0.00,CWS Microserver 1.4,2013-02-17 08:14:00,
2013-02-17 02:19:00,20.2,16.3,30.01,South,169,6.5,12.8,84,0.00,,,0.00,CWS Microserver 1.4,2013-02-17 08:19:00,
2013-02-17 02:24:00,19.8,16.0,30.00,South,173,10.1,11.2,84,0.00,,,0.00,CWS Microserver 1.4,2013-02-17 08:24:00,
2013-02-17 02:29:00,20.0,16.2,30.00,South,181,10.0,11.2,85,0.00,,,0.00,CWS Microserver 1.4,2013-02-17 08:29:00,
2013-02-17 02:34:00,20.2,16.4,30.00,South,173,8.1,12.8,85,0.00,,,0.00,CWS Microserver 1.4,2013-02-17 08:34:00,
2013-02-17 02:39:00,20.3,16.4,30.00,South,190,8.7,12.8,84,0.00,,,0.00,CWS Microserver 1.4,2013-02-17 08:39:00,
2013-02-17 02:44:00,20.0,16.2,30.00,South,182,9.1,12.2,85,0.00,,,0.00,CWS Microserver 1.4,2013-02-17 08:44:00,
2013-02-17 02:49:00,20.2,16.4,30.00,SE,137,4.2,10.8,85,0.00,,,0.00,CWS Microserver 1.4,2013-02-17 08:49:00,
2013-02-17 02:55:00,20.2,16.3,30.00,SSW,193,4.3,11.2,84,0.00,,,0.00,CWS Microserver 1.4,2013-02-17 08:55:00,
2013-02-17 02:59:00,20.0,16.1,30.00,SSE,159,5.2,11.2,84,0.00,,,0.00,CWS Microserver 1.4,2013-02-17 08:59:00,
2013-02-17 03:05:00,20.0,16.3,30.00,South,170,8.1,9.7,85,0.00,,,0.00,CWS Microserver 1.4,2013-02-17 09:05:00,
2013-02-17 03:10:00,20.0,16.3,29.99,South,177,10.5,10.8,85,0.00,,,0.00,CWS Microserver 1.4,2013-02-17 09:10:00,
2013-02-17 03:15:00,20.2,16.4,30.00,South,182,5.6,10.8,84,0.00,,,0.00,CWS Microserver 1.4,2013-02-17 09:15:00,
2013-02-17 03:20:00,20.0,16.1,30.00,SSE,164,8.2,10.8,84,0.00,,,0.00,CWS Microserver 1.4,2013-02-17 09:20:00,
2013-02-17 03:25:00,20.0,16.2,29.99,SSE,165,7.8,10.8,84,0.00,,,0.00,CWS Microserver 1.4,2013-02-17 09:25:00,
2013-02-17 03:30:00,20.2,16.4,29.99,SSE,164,7.8,11.1,84,0.00,,,0.00,CWS Microserver 1.4,2013-02-17 09:30:00,
2013-02-17 03:34:00,19.8,16.0,29.99,SSE,153,10.2,11.9,84,0.00,,,0.00,CWS Microserver 1.4,2013-02-17 09:34:00,
2013-02-17 03:40:00,19.6,15.8,29.99,SSE,164,8.0,12.3,84,0.00,,,0.00,CWS Microserver 1.4,2013-02-17 09:40:00,
2013-02-17 03:44:00,19.4,15.8,29.99,SSE,163,10.0,12.7,85,0.00,,,0.00,CWS Microserver 1.4,2013-02-17 09:44:00,
2013-02-17 03:50:00,19.6,16.0,29.99,SSE,165,9.0,14.3,85,0.00,,,0.00,CWS Microserver 1.4,2013-02-17 09:50:00,
2013-02-17 03:55:00,19.3,15.6,29.98,SSE,156,10.3,14.3,85,0.00,,,0.00,CWS Microserver 1.4,2013-02-17 09:55:00,
2013-02-17 04:00:00,18.9,15.4,29.98,SSE,156,11.2,13.4,86,0.00,,,0.00,CWS Microserver 1.4,2013-02-17 10:00:00,
2013-02-17 04:05:00,18.9,15.5,29.98,SSE,154,8.9,13.4,86,0.00,,,0.00,CWS Microserver 1.4,2013-02-17 10:05:00,
2013-02-17 04:09:00,18.9,15.4,29.98,SSE,158,11.1,13.6,86,0.00,,,0.00,CWS Microserver 1.4,2013-02-17 10:09:00,
2013-02-17 04:15:00,18.7,15.2,29.98,SSE,159,10.2,13.6,86,0.00,,,0.00,CWS Microserver 1.4,2013-02-17 10:15:00,
2013-02-17 04:24:00,18.7,15.2,29.98,SSE,162,10.2,13.7,86,0.00,,,0.00,CWS Microserver 1.4,2013-02-17 10:24:00,
2013-02-17 04:29:00,18.7,15.2,29.98,SSE,164,9.9,14.6,85,0.00,,,0.00,CWS Microserver 1.4,2013-02-17 10:29:00,
2013-02-17 04:34:00,18.5,15.1,29.97,SSE,163,12.1,14.6,86,0.00,,,0.00,CWS Microserver 1.4,2013-02-17 10:34:00,
2013-02-17 04:40:00,18.5,15.1,29.97,South,184,11.5,15.6,86,0.00,,,0.00,CWS Microserver 1.4,2013-02-17 10:40:00,
2013-02-17 04:49:00,18.5,15.0,29.97,SSE,159,11.6,17.2,86,0.00,,,0.00,CWS Microserver 1.4,2013-02-17 10:49:00,
2013-02-17 04:54:00,18.4,14.9,29.97,SSE,161,11.4,15.1,85,0.00,,,0.00,CWS Microserver 1.4,2013-02-17 10:54:00,
2013-02-17 04:59:00,18.4,15.0,29.97,SSE,166,10.8,14.8,86,0.00,,,0.00,CWS Microserver 1.4,2013-02-17 10:59:00,
2013-02-17 05:04:00,18.4,15.0,29.97,SSE,162,13.0,14.5,86,0.00,,,0.00,CWS Microserver 1.4,2013-02-17 11:04:00,
2013-02-17 05:09:00,18.4,14.9,29.96,SSE,166,9.7,15.9,86,0.00,,,0.00,CWS Microserver 1.4,2013-02-17 11:09:00,
2013-02-17 05:14:00,18.4,14.9,29.96,SSE,166,10.4,15.9,86,0.00,,,0.00,CWS Microserver 1.4,2013-02-17 11:14:00,
2013-02-17 05:19:00,18.5,15.0,29.96,SSE,164,14.7,15.6,85,0.00,,,0.00,CWS Microserver 1.4,2013-02-17 11:19:00,
2013-02-17 05:24:00,18.5,14.9,29.96,South,174,11.0,17.4,85,0.00,,,0.00,CWS Microserver 1.4,2013-02-17 11:24:00,
2013-02-17 05:29:00,18.5,14.9,29.96,South,176,11.1,17.4,85,0.00,,,0.00,CWS Microserver 1.4,2013-02-17 11:29:00,
2013-02-17 05:34:00,18.5,14.9,29.96,SSE,166,12.6,16.4,85,0.00,,,0.00,CWS Microserver 1.4,2013-02-17 11:34:00,
2013-02-17 05:39:00,18.7,15.0,29.96,SSE,161,12.4,14.8,85,0.00,,,0.00,CWS Microserver 1.4,2013-02-17 11:39:00,
2013-02-17 05:44:00,18.7,15.0,29.96,South,176,9.2,15.0,85,0.00,,,0.00,CWS Microserver 1.4,2013-02-17 11:44:00,
2013-02-17 05:49:00,18.5,14.8,29.95,SSE,167,13.3,15.0,85,0.00,,,0.00,CWS Microserver 1.4,2013-02-17 11:49:00,
2013-02-17 05:54:00,18.7,15.0,29.95,South,178,6.4,15.6,85,0.00,,,0.00,CWS Microserver 1.4,2013-02-17 11:54:00,
2013-02-17 05:59:00,18.7,14.9,29.95,SSE,160,10.1,15.6,84,0.00,,,0.00,CWS Microserver 1.4,2013-02-17 11:59:00,
2013-02-17 06:04:00,18.5,14.8,29.95,SSE,163,12.9,14.0,85,0.00,,,0.00,CWS Microserver 1.4,2013-02-17 12:04:00,
2013-02-17 06:09:00,18.5,14.9,29.95,SSE,164,10.4,14.8,85,0.00,,,0.00,CWS Microserver 1.4,2013-02-17 12:09:00,
2013-02-17 06:14:00,18.9,15.0,29.94,South,169,10.8,16.5,84,0.00,,,0.00,CWS Microserver 1.4,2013-02-17 12:14:00,
2013-02-17 06:19:00,18.7,14.9,29.94,South,182,7.5,16.5,85,0.00,,,0.00,CWS Microserver 1.4,2013-02-17 12:19:00,
2013-02-17 06:24:00,18.7,14.9,29.94,South,169,6.9,16.3,84,0.00,,,0.00,CWS Microserver 1.4,2013-02-17 12:24:00,
2013-02-17 06:29:00,18.7,14.9,29.94,South,175,10.0,16.3,84,0.00,,,0.00,CWS Microserver 1.4,2013-02-17 12:29:00,
2013-02-17 06:34:00,18.7,14.8,29.94,South,184,8.7,15.3,84,0.00,,,0.00,CWS Microserver 1.4,2013-02-17 12:34:00,
2013-02-17 06:39:00,18.5,14.6,29.94,SSE,158,12.7,16.1,84,0.00,,,0.00,CWS Microserver 1.4,2013-02-17 12:39:00,
2013-02-17 06:44:00,18.4,14.6,29.93,SSE,152,7.7,16.4,84,0.00,,,0.00,CWS Microserver 1.4,2013-02-17 12:44:00,
2013-02-17 06:49:00,18.5,14.6,29.93,South,185,9.5,18.0,84,0.00,,,0.00,CWS Microserver 1.4,2013-02-17 12:49:00,
2013-02-17 06:54:00,18.5,14.6,29.93,South,182,11.4,19.1,84,0.00,,,0.00,CWS Microserver 1.4,2013-02-17 12:54:00,
2013-02-17 06:59:00,18.5,14.6,29.93,SSE,166,8.6,19.4,84,0.00,,,0.00,CWS Microserver 1.4,2013-02-17 12:59:00,
2013-02-17 07:04:00,18.5,14.6,29.93,SSE,165,14.7,19.4,84,0.00,,,0.00,CWS Microserver 1.4,2013-02-17 13:04:00,
2013-02-17 07:09:00,18.5,14.6,29.93,SSE,164,13.3,18.3,84,0.00,,,0.00,CWS Microserver 1.4,2013-02-17 13:09:00,
2013-02-17 07:14:00,18.5,14.6,29.93,South,172,11.9,17.3,84,0.00,,,0.00,CWS Microserver 1.4,2013-02-17 13:14:00,
2013-02-17 07:19:00,18.4,14.5,29.93,SSE,164,14.6,17.3,84,0.00,,,0.00,CWS Microserver 1.4,2013-02-17 13:19:00,
2013-02-17 07:24:00,18.4,14.5,29.93,South,176,10.9,18.3,84,0.00,,,0.00,CWS Microserver 1.4,2013-02-17 13:24:00,
2013-02-17 07:29:00,18.5,14.6,29.93,SSE,165,14.2,18.3,84,0.00,,,0.00,CWS Microserver 1.4,2013-02-17 13:29:00,
2013-02-17 07:34:00,18.4,14.5,29.93,SSE,163,12.4,18.7,84,0.00,,,0.00,CWS Microserver 1.4,2013-02-17 13:34:00,
2013-02-17 07:39:00,18.4,14.5,29.93,SSE,165,11.1,18.7,84,0.00,,,0.00,CWS Microserver 1.4,2013-02-17 13:39:00,
2013-02-17 07:44:00,18.4,14.5,29.92,SSE,167,15.4,17.8,84,0.00,,,0.00,CWS Microserver 1.4,2013-02-17 13:44:00,
2013-02-17 07:49:00,18.5,14.6,29.92,SSE,161,10.8,19.1,84,0.00,,,0.00,CWS Microserver 1.4,2013-02-17 13:49:00,
2013-02-17 07:54:00,18.5,14.6,29.92,South,176,6.3,19.1,84,0.00,,,0.00,CWS Microserver 1.4,2013-02-17 13:54:00,
2013-02-17 07:59:00,18.7,14.7,29.92,South,174,14.2,17.3,84,0.00,,,0.00,CWS Microserver 1.4,2013-02-17 13:59:00,
2013-02-17 08:04:00,18.7,14.7,29.92,SSE,163,13.1,18.7,84,0.00,,,0.00,CWS Microserver 1.4,2013-02-17 14:04:00,
2013-02-17 08:09:00,18.9,14.9,29.92,SSE,164,14.4,19.3,84,0.00,,,0.00,CWS Microserver 1.4,2013-02-17 14:09:00,
2013-02-17 08:14:00,19.1,15.0,29.92,SSE,161,14.7,19.3,83,0.00,,,0.00,CWS Microserver 1.4,2013-02-17 14:14:00,
2013-02-17 08:19:00,19.3,15.2,29.92,South,173,12.8,20.1,83,0.00,,,0.00,CWS Microserver 1.4,2013-02-17 14:19:00,
2013-02-17 08:24:00,19.4,15.1,29.91,SSE,167,15.4,20.1,83,0.00,,,0.00,CWS Microserver 1.4,2013-02-17 14:24:00,
2013-02-17 08:29:00,19.4,15.2,29.91,South,172,14.7,19.6,83,0.00,,,0.00,CWS Microserver 1.4,2013-02-17 14:29:00,
2013-02-17 08:34:00,19.6,15.3,29.91,SSE,165,16.5,20.1,83,0.00,,,0.00,CWS Microserver 1.4,2013-02-17 14:34:00,
2013-02-17 08:39:00,19.8,15.5,29.91,South,175,11.9,20.1,83,0.00,,,0.00,CWS Microserver 1.4,2013-02-17 14:39:00,
2013-02-17 08:44:00,20.2,15.9,29.91,South,171,17.6,19.5,83,0.00,,,0.00,CWS Microserver 1.4,2013-02-17 14:44:00,
2013-02-17 08:49:00,20.5,16.2,29.91,South,174,15.6,19.5,83,0.00,,,0.00,CWS Microserver 1.4,2013-02-17 14:49:00,
2013-02-17 08:54:00,20.5,16.0,29.91,SSE,168,17.0,19.9,82,0.00,,,0.00,CWS Microserver 1.4,2013-02-17 14:54:00,
2013-02-17 08:59:00,20.9,16.4,29.91,South,175,14.7,19.9,82,0.00,,,0.00,CWS Microserver 1.4,2013-02-17 14:59:00,
2013-02-17 09:04:00,20.9,16.2,29.91,South,175,14.1,17.9,81,0.00,,,0.00,CWS Microserver 1.4,2013-02-17 15:04:00,
2013-02-17 09:09:00,21.1,16.4,29.90,South,174,12.2,17.5,81,0.00,,,0.00,CWS Microserver 1.4,2013-02-17 15:09:00,
2013-02-17 09:14:00,21.2,16.6,29.90,South,171,16.2,19.1,82,0.00,,,0.00,CWS Microserver 1.4,2013-02-17 15:14:00,
2013-02-17 09:19:00,21.4,16.8,29.90,South,170,16.3,19.1,82,0.00,,,0.00,CWS Microserver 1.4,2013-02-17 15:19:00,
2013-02-17 09:24:00,21.6,17.0,29.90,SSE,167,9.8,18.2,82,0.00,,,0.00,CWS Microserver 1.4,2013-02-17 15:24:00,
2013-02-17 09:29:00,22.0,17.4,29.90,South,173,15.6,18.2,82,0.00,,,0.00,CWS Microserver 1.4,2013-02-17 15:29:00,
2013-02-17 09:34:00,22.1,17.3,29.89,SSE,159,17.2,20.4,81,0.00,,,0.00,CWS Microserver 1.4,2013-02-17 15:34:00,
2013-02-17 09:39:00,22.5,17.7,29.89,South,171,8.2,20.4,81,0.00,,,0.00,CWS Microserver 1.4,2013-02-17 15:39:00,
2013-02-17 09:44:00,23.0,18.1,29.89,SSE,168,18.0,19.9,81,0.00,,,0.00,CWS Microserver 1.4,2013-02-17 15:44:00,
2013-02-17 09:50:00,23.4,18.1,29.88,South,169,18.1,21.3,79,0.00,,,0.00,CWS Microserver 1.4,2013-02-17 15:50:00,
2013-02-17 09:59:00,23.9,18.4,29.88,South,184,10.8,22.9,79,0.00,,,0.00,CWS Microserver 1.4,2013-02-17 15:59:00,
2013-02-17 10:04:00,24.1,18.7,29.88,SSE,162,15.4,22.9,79,0.00,,,0.00,CWS Microserver 1.4,2013-02-17 16:04:00,
2013-02-17 10:09:00,24.5,19.0,29.88,South,181,12.3,21.6,79,0.00,,,0.00,CWS Microserver 1.4,2013-02-17 16:09:00,
2013-02-17 10:14:00,24.7,19.2,29.88,SSE,156,8.7,22.3,79,0.00,,,0.00,CWS Microserver 1.4,2013-02-17 16:14:00,
2013-02-17 10:19:00,25.0,19.4,29.88,SSE,167,13.2,22.3,79,0.00,,,0.00,CWS Microserver 1.4,2013-02-17 16:19:00,
2013-02-17 10:24:00,25.4,19.9,29.88,South,176,10.1,20.8,79,0.00,,,0.00,CWS Microserver 1.4,2013-02-17 16:24:00,
2013-02-17 10:29:00,25.4,19.2,29.87,South,183,16.7,21.3,77,0.00,,,0.00,CWS Microserver 1.4,2013-02-17 16:29:00,
2013-02-17 10:34:00,25.7,19.5,29.87,South,176,20.6,21.3,76,0.00,,,0.00,CWS Microserver 1.4,2013-02-17 16:34:00,
2013-02-17 10:40:00,25.7,19.4,29.87,South,183,19.1,24.2,76,0.00,,,0.00,CWS Microserver 1.4,2013-02-17 16:40:00,
2013-02-17 10:49:00,26.6,20.6,29.86,SSE,167,14.7,23.8,77,0.00,,,0.00,CWS Microserver 1.4,2013-02-17 16:49:00,
2013-02-17 10:59:00,27.4,21.5,29.86,South,183,14.0,25.2,78,0.00,,,0.00,CWS Microserver 1.4,2013-02-17 16:59:00,
2013-02-17 11:04:00,27.4,20.5,29.85,South,185,16.6,23.4,74,0.00,,,0.00,CWS Microserver 1.4,2013-02-17 17:04:00,
2013-02-17 11:09:00,27.5,20.6,29.85,South,179,16.4,24.8,75,0.00,,,0.00,CWS Microserver 1.4,2013-02-17 17:09:00,
2013-02-17 11:14:00,27.9,21.3,29.85,South,170,19.2,24.8,75,0.00,,,0.00,CWS Microserver 1.4,2013-02-17 17:14:00,
2013-02-17 11:19:00,28.3,21.8,29.85,South,181,10.7,23.6,76,0.00,,,0.00,CWS Microserver 1.4,2013-02-17 17:19:00,
2013-02-17 11:29:00,29.0,22.2,29.85,South,175,11.1,21.6,75,0.00,,,0.00,CWS Microserver 1.4,2013-02-17 17:29:00,
2013-02-17 11:34:00,29.2,22.1,29.84,SSE,166,17.2,25.2,74,0.00,,,0.00,CWS Microserver 1.4,2013-02-17 17:34:00,
2013-02-17 11:39:00,29.3,22.2,29.84,SSE,158,20.2,25.2,74,0.00,,,0.00,CWS Microserver 1.4,2013-02-17 17:39:00,
2013-02-17 11:44:00,29.5,22.8,29.84,SSE,160,16.7,25.0,75,0.00,,,0.00,CWS Microserver 1.4,2013-02-17 17:44:00,
2013-02-17 11:49:00,29.9,23.1,29.84,South,173,15.1,25.0,75,0.00,,,0.00,CWS Microserver 1.4,2013-02-17 17:49:00,
2013-02-17 11:54:00,30.2,23.0,29.83,South,170,19.1,25.0,74,0.00,,,0.00,CWS Microserver 1.4,2013-02-17 17:54:00,
2013-02-17 11:59:00,30.2,22.9,29.83,SSE,161,25.4,26.2,74,0.00,,,0.00,CWS Microserver 1.4,2013-02-17 17:59:00,
2013-02-17 12:04:00,30.4,23.3,29.83,SSE,167,16.2,28.4,74,0.00,,,0.00,CWS Microserver 1.4,2013-02-17 18:04:00,
2013-02-17 12:09:00,30.6,23.5,29.82,South,170,18.0,28.4,74,0.00,,,0.00,CWS Microserver 1.4,2013-02-17 18:09:00,
2013-02-17 12:14:00,31.0,24.0,29.81,SSE,163,21.1,25.8,75,0.00,,,0.00,CWS Microserver 1.4,2013-02-17 18:14:00,
2013-02-17 12:19:00,31.3,24.1,29.81,SSE,159,24.3,26.3,74,0.00,,,0.00,CWS Microserver 1.4,2013-02-17 18:19:00,
2013-02-17 12:24:00,31.5,23.9,29.80,SSE,163,21.0,26.3,73,0.00,,,0.00,CWS Microserver 1.4,2013-02-17 18:24:00,
2013-02-17 12:29:00,31.9,24.2,29.80,SSE,160,20.6,26.7,72,0.00,,,0.00,CWS Microserver 1.4,2013-02-17 18:29:00,
2013-02-17 12:34:00,32.0,24.4,29.80,SSE,160,17.7,27.4,73,0.00,,,0.00,CWS Microserver 1.4,2013-02-17 18:34:00,
2013-02-17 12:39:00,32.5,24.7,29.80,SSE,168,15.8,27.4,72,0.00,,,0.00,CWS Microserver 1.4,2013-02-17 18:39:00,
2013-02-17 12:44:00,32.3,24.8,29.80,South,171,17.2,28.5,73,0.00,,,0.00,CWS Microserver 1.4,2013-02-17 18:44:00,
2013-02-17 12:49:00,32.5,24.2,29.80,SSE,167,20.8,28.5,71,0.00,,,0.00,CWS Microserver 1.4,2013-02-17 18:49:00,
2013-02-17 12:54:00,32.5,24.4,29.79,South,176,14.2,28.1,71,0.00,,,0.00,CWS Microserver 1.4,2013-02-17 18:54:00,
2013-02-17 12:59:00,32.9,24.7,29.79,South,178,14.5,27.9,71,0.00,,,0.00,CWS Microserver 1.4,2013-02-17 18:59:00,
2013-02-17 13:04:00,33.0,25.0,29.79,South,180,16.2,29.1,72,0.00,,,0.00,CWS Microserver 1.4,2013-02-17 19:04:00,
2013-02-17 13:09:00,33.2,25.2,29.78,SSE,163,21.0,29.1,72,0.00,,,0.00,CWS Microserver 1.4,2013-02-17 19:09:00,
2013-02-17 13:14:00,33.2,25.2,29.78,South,173,20.6,27.8,72,0.00,,,0.00,CWS Microserver 1.4,2013-02-17 19:14:00,
2013-02-17 13:19:00,33.6,25.9,29.77,SSE,162,20.2,27.8,73,0.00,,,0.00,CWS Microserver 1.4,2013-02-17 19:19:00,
2013-02-17 13:24:00,33.4,25.0,29.77,SSE,157,23.6,28.9,71,0.00,,,0.00,CWS Microserver 1.4,2013-02-17 19:24:00,
2013-02-17 13:29:00,33.8,25.8,29.77,SSE,159,23.8,28.9,72,0.00,,,0.00,CWS Microserver 1.4,2013-02-17 19:29:00,
2013-02-17 13:34:00,33.9,26.5,29.76,SSE,156,15.4,30.7,74,0.00,,,0.00,CWS Microserver 1.4,2013-02-17 19:34:00,
2013-02-17 13:39:00,33.9,26.0,29.75,SSE,160,23.6,30.7,72,0.00,,,0.00,CWS Microserver 1.4,2013-02-17 19:39:00,
2013-02-17 13:44:00,34.3,26.5,29.75,SE,143,16.2,30.5,72,0.00,,,0.00,CWS Microserver 1.4,2013-02-17 19:44:00,
2013-02-17 13:49:00,34.5,26.1,29.74,SSE,162,23.8,29.0,71,0.00,,,0.00,CWS Microserver 1.4,2013-02-17 19:49:00,
2013-02-17 13:54:00,34.8,27.0,29.74,SSE,153,18.3,29.0,72,0.00,,,0.00,CWS Microserver 1.4,2013-02-17 19:54:00,
2013-02-17 13:59:00,34.8,26.7,29.74,SSE,163,21.6,29.0,71,0.00,,,0.00,CWS Microserver 1.4,2013-02-17 19:59:00,
2013-02-17 14:04:00,34.7,27.0,29.74,South,170,19.3,29.0,73,0.00,,,0.00,CWS Microserver 1.4,2013-02-17 20:04:00,
2013-02-17 14:09:00,34.8,26.9,29.74,South,169,21.0,31.3,72,0.00,,,0.00,CWS Microserver 1.4,2013-02-17 20:09:00,
2013-02-17 14:14:00,34.7,27.1,29.73,SSE,157,23.4,31.3,73,0.00,,,0.00,CWS Microserver 1.4,2013-02-17 20:14:00,
2013-02-17 14:19:00,34.7,26.9,29.74,SSE,160,21.4,28.6,73,0.00,,,0.00,CWS Microserver 1.4,2013-02-17 20:19:00,
2013-02-17 14:24:00,34.3,27.2,29.73,SSE,167,19.9,28.6,75,0.00,,,0.00,CWS Microserver 1.4,2013-02-17 20:24:00,
2013-02-17 14:29:00,34.5,27.0,29.72,SSE,153,26.7,27.8,73,0.00,,,0.00,CWS Microserver 1.4,2013-02-17 20:29:00,
2013-02-17 14:34:00,34.5,27.4,29.72,SSE,153,19.9,30.0,75,0.00,,,0.00,CWS Microserver 1.4,2013-02-17 20:34:00,
2013-02-17 14:39:00,34.5,27.2,29.72,SSE,155,21.3,30.0,74,0.00,,,0.00,CWS Microserver 1.4,2013-02-17 20:39:00,
2013-02-17 14:44:00,34.7,27.4,29.72,SE,146,20.0,28.4,74,0.00,,,0.00,CWS Microserver 1.4,2013-02-17 20:44:00,
2013-02-17 14:49:00,35.0,27.7,29.72,SSE,155,27.9,28.4,74,0.00,,,0.00,CWS Microserver 1.4,2013-02-17 20:49:00,
2013-02-17 14:54:00,35.2,27.6,29.72,South,177,18.7,31.3,73,0.00,,,0.00,CWS Microserver 1.4,2013-02-17 20:54:00,
2013-02-17 14:59:00,35.2,27.9,29.72,SSE,160,19.7,33.6,74,0.00,,,0.00,CWS Microserver 1.4,2013-02-17 20:59:00,
2013-02-17 15:04:00,35.4,28.4,29.72,SSE,158,18.3,33.6,75,0.00,,,0.00,CWS Microserver 1.4,2013-02-17 21:04:00,
2013-02-17 15:09:00,35.6,27.9,29.72,SSE,156,17.1,30.4,73,0.00,,,0.00,CWS Microserver 1.4,2013-02-17 21:09:00,
2013-02-17 15:14:00,35.6,28.0,29.71,SSE,166,26.5,29.9,73,0.00,,,0.00,CWS Microserver 1.4,2013-02-17 21:14:00,
2013-02-17 15:19:00,35.7,28.5,29.71,SSE,154,20.6,29.9,74,0.00,,,0.00,CWS Microserver 1.4,2013-02-17 21:19:00,
2013-02-17 15:24:00,35.7,28.5,29.70,SSE,161,20.3,27.9,74,0.00,,,0.00,CWS Microserver 1.4,2013-02-17 21:24:00,
2013-02-17 15:29:00,35.7,28.6,29.71,SSE,148,21.4,27.8,75,0.00,,,0.00,CWS Microserver 1.4,2013-02-17 21:29:00,
2013-02-17 15:34:00,35.7,28.2,29.70,SSE,163,21.9,28.0,73,0.00,,,0.00,CWS Microserver 1.4,2013-02-17 21:34:00,
2013-02-17 15:39:00,35.6,28.2,29.70,SSE,160,25.5,28.9,74,0.00,,,0.00,CWS Microserver 1.4,2013-02-17 21:39:00,
2013-02-17 15:44:00,35.6,28.1,29.69,SSE,163,23.3,28.9,73,0.00,,,0.00,CWS Microserver 1.4,2013-02-17 21:44:00,
2013-02-17 15:49:00,35.4,27.5,29.69,SSE,161,27.6,32.5,72,0.00,,,0.00,CWS Microserver 1.4,2013-02-17 21:49:00,
2013-02-17 15:54:00,35.2,28.2,29.68,SSE,152,25.5,32.5,75,0.00,,,0.00,CWS Microserver 1.4,2013-02-17 21:54:00,
2013-02-17 15:59:00,35.2,28.0,29.68,SSE,161,25.2,31.8,74,0.00,,,0.00,CWS Microserver 1.4,2013-02-17 21:59:00,
2013-02-17 16:04:00,35.0,27.7,29.67,SSE,163,27.8,34.1,74,0.00,,,0.00,CWS Microserver 1.4,2013-02-17 22:04:00,
2013-02-17 16:09:00,34.8,27.9,29.67,SSE,163,21.2,34.1,75,0.00,,,0.00,CWS Microserver 1.4,2013-02-17 22:09:00,
2013-02-17 16:14:00,34.8,28.0,29.68,SSE,161,21.2,30.3,76,0.00,,,0.00,CWS Microserver 1.4,2013-02-17 22:14:00,
2013-02-17 16:19:00,34.7,27.8,29.67,SSE,158,24.6,30.3,75,0.00,,,0.00,CWS Microserver 1.4,2013-02-17 22:19:00,
2013-02-17 16:24:00,34.7,28.0,29.66,SSE,158,27.6,28.0,76,0.00,,,0.00,CWS Microserver 1.4,2013-02-17 22:24:00,
2013-02-17 16:29:00,34.7,27.9,29.66,SSE,157,26.1,28.1,76,0.00,,,0.00,CWS Microserver 1.4,2013-02-17 22:29:00,
2013-02-17 16:34:00,34.5,27.9,29.66,SSE,158,23.9,28.1,76,0.00,,,0.00,CWS Microserver 1.4,2013-02-17 22:34:00,
2013-02-17 16:39:00,34.7,28.0,29.66,SSE,157,25.1,29.0,76,0.00,,,0.00,CWS Microserver 1.4,2013-02-17 22:39:00,
2013-02-17 16:44:00,34.7,28.1,29.65,SSE,155,22.6,29.0,76,0.00,,,0.00,CWS Microserver 1.4,2013-02-17 22:44:00,
2013-02-17 16:49:00,34.7,28.0,29.66,SSE,160,22.9,29.6,76,0.00,,,0.00,CWS Microserver 1.4,2013-02-17 22:49:00,
2013-02-17 16:54:00,34.7,28.0,29.65,SSE,155,25.3,29.7,76,0.00,,,0.00,CWS Microserver 1.4,2013-02-17 22:54:00,
2013-02-17 16:59:00,34.7,27.9,29.66,SSE,158,19.9,31.5,76,0.00,,,0.00,CWS Microserver 1.4,2013-02-17 22:59:00,
2013-02-17 17:04:00,34.8,27.9,29.65,SSE,155,21.1,31.5,75,0.00,,,0.00,CWS Microserver 1.4,2013-02-17 23:04:00,
2013-02-17 17:09:00,34.7,27.9,29.65,SSE,160,21.3,31.0,76,0.00,,,0.00,CWS Microserver 1.4,2013-02-17 23:09:00,
2013-02-17 17:14:00,34.7,27.7,29.64,SSE,149,24.3,29.8,75,0.00,,,0.00,CWS Microserver 1.4,2013-02-17 23:14:00,
2013-02-17 17:19:00,34.8,27.8,29.64,SE,145,19.0,29.4,75,0.00,,,0.00,CWS Microserver 1.4,2013-02-17 23:19:00,
2013-02-17 17:24:00,34.7,27.9,29.64,SSE,158,20.7,29.4,76,0.00,,,0.00,CWS Microserver 1.4,2013-02-17 23:24:00,
2013-02-17 17:29:00,34.7,27.8,29.64,SSE,150,23.5,29.4,75,0.00,,,0.00,CWS Microserver 1.4,2013-02-17 23:29:00,
2013-02-17 17:34:00,34.7,27.8,29.64,SSE,150,18.3,29.4,75,0.00,,,0.00,CWS Microserver 1.4,2013-02-17 23:34:00,
2013-02-17 17:39:00,34.8,27.7,29.64,SSE,150,17.4,28.9,75,0.00,,,0.00,CWS Microserver 1.4,2013-02-17 23:39:00,
2013-02-17 17:44:00,34.7,27.6,29.64,SSE,159,20.5,28.9,75,0.00,,,0.00,CWS Microserver 1.4,2013-02-17 23:44:00,
2013-02-17 17:49:00,34.7,27.7,29.64,SSE,159,20.9,26.7,75,0.00,,,0.00,CWS Microserver 1.4,2013-02-17 23:49:00,
2013-02-17 17:54:00,35.0,27.7,29.64,SSE,160,28.6,33.4,74,0.00,,,0.00,CWS Microserver 1.4,2013-02-17 23:54:00,
2013-02-17 17:59:00,34.7,27.5,29.64,SSE,153,18.2,33.4,74,0.00,,,0.00,CWS Microserver 1.4,2013-02-17 23:59:00,
2013-02-17 18:04:00,34.7,27.4,29.64,SSE,150,18.5,29.4,74,0.00,,,0.00,CWS Microserver 1.4,2013-02-18 00:04:00,
2013-02-17 18:09:00,34.7,27.4,29.63,SSE,161,17.9,27.2,74,0.00,,,0.00,CWS Microserver 1.4,2013-02-18 00:09:00,
2013-02-17 18:14:00,34.5,27.1,29.63,SSE,158,20.4,27.2,74,0.00,,,0.00,CWS Microserver 1.4,2013-02-18 00:14:00,
2013-02-17 18:19:00,34.7,26.9,29.63,SSE,164,23.1,31.6,73,0.00,,,0.00,CWS Microserver 1.4,2013-02-18 00:19:00,
2013-02-17 18:24:00,34.7,27.2,29.64,SSE,160,23.7,31.6,73,0.00,,,0.00,CWS Microserver 1.4,2013-02-18 00:24:00,
2013-02-17 18:29:00,34.5,26.9,29.64,SSE,164,21.6,30.4,73,0.00,,,0.00,CWS Microserver 1.4,2013-02-18 00:29:00,
2013-02-17 18:34:00,34.5,27.0,29.63,SSE,163,21.9,30.1,73,0.00,,,0.00,CWS Microserver 1.4,2013-02-18 00:34:00,
2013-02-17 18:39:00,34.5,27.1,29.63,SSE,156,20.7,28.8,74,0.00,,,0.00,CWS Microserver 1.4,2013-02-18 00:39:00,
2013-02-17 18:44:00,34.3,26.7,29.63,SSE,159,23.6,29.1,73,0.00,,,0.00,CWS Microserver 1.4,2013-02-18 00:44:00,
2013-02-17 18:49:00,34.5,27.2,29.63,SSE,160,16.3,29.1,74,0.00,,,0.00,CWS Microserver 1.4,2013-02-18 00:49:00,
2013-02-17 18:54:00,34.3,26.9,29.63,SSE,159,18.3,29.0,74,0.00,,,0.00,CWS Microserver 1.4,2013-02-18 00:54:00,
2013-02-17 18:59:00,34.3,26.9,29.63,SSE,161,21.0,28.7,74,0.00,,,0.00,CWS Microserver 1.4,2013-02-18 00:59:00,
2013-02-17 19:04:00,34.1,26.8,29.62,SSE,164,22.4,28.8,74,0.00,,,0.00,CWS Microserver 1.4,2013-02-18 01:04:00,
2013-02-17 19:09:00,34.3,27.0,29.62,SSE,157,19.8,28.8,74,0.00,,,0.00,CWS Microserver 1.4,2013-02-18 01:09:00,
2013-02-17 19:14:00,34.1,26.9,29.62,SSE,155,24.1,28.5,74,0.00,,,0.00,CWS Microserver 1.4,2013-02-18 01:14:00,
2013-02-17 19:19:00,34.1,27.1,29.62,SSE,159,15.7,26.2,75,0.00,,,0.00,CWS Microserver 1.4,2013-02-18 01:19:00,
2013-02-17 19:24:00,34.1,26.9,29.62,SSE,162,17.5,27.9,74,0.00,,,0.00,CWS Microserver 1.4,2013-02-18 01:24:00,
2013-02-17 19:29:00,34.1,26.9,29.62,SSE,159,18.9,27.9,74,0.00,,,0.00,CWS Microserver 1.4,2013-02-18 01:29:00,
2013-02-17 19:34:00,34.3,27.0,29.61,SSE,156,22.0,28.4,74,0.00,,,0.00,CWS Microserver 1.4,2013-02-18 01:34:00,
2013-02-17 19:39:00,34.3,27.0,29.61,SSE,155,23.2,28.4,74,0.00,,,0.00,CWS Microserver 1.4,2013-02-18 01:39:00,
2013-02-17 19:44:00,34.3,26.8,29.61,SSE,158,30.1,30.1,73,0.00,,,0.00,CWS Microserver 1.4,2013-02-18 01:44:00,
2013-02-17 19:49:00,34.3,27.1,29.61,SSE,162,18.1,30.1,74,0.00,,,0.00,CWS Microserver 1.4,2013-02-18 01:49:00,
2013-02-17 19:54:00,34.3,27.1,29.61,SSE,160,20.5,30.1,74,0.00,,,0.00,CWS Microserver 1.4,2013-02-18 01:54:00,
2013-02-17 19:59:00,34.3,26.9,29.61,SSE,160,24.8,29.1,74,0.00,,,0.00,CWS Microserver 1.4,2013-02-18 01:59:00,
2013-02-17 20:04:00,34.3,27.1,29.61,SSE,167,23.4,28.9,74,0.00,,,0.00,CWS Microserver 1.4,2013-02-18 02:04:00,
2013-02-17 20:09:00,34.3,27.1,29.60,SSE,164,22.1,29.0,74,0.00,,,0.00,CWS Microserver 1.4,2013-02-18 02:09:00,
2013-02-17 20:14:00,34.1,26.7,29.60,SSE,156,23.1,29.0,74,0.00,,,0.00,CWS Microserver 1.4,2013-02-18 02:14:00,
2013-02-17 20:19:00,34.1,26.8,29.60,SSE,165,24.3,28.7,74,0.00,,,0.00,CWS Microserver 1.4,2013-02-18 02:19:00,
2013-02-17 20:24:00,34.3,26.8,29.59,SSE,158,26.3,30.7,73,0.00,,,0.00,CWS Microserver 1.4,2013-02-18 02:24:00,
2013-02-17 20:29:00,34.1,26.8,29.59,SSE,161,26.8,30.7,74,0.00,,,0.00,CWS Microserver 1.4,2013-02-18 02:29:00,
2013-02-17 20:34:00,34.3,26.9,29.59,SSE,167,14.8,28.9,74,0.00,,,0.00,CWS Microserver 1.4,2013-02-18 02:34:00,
2013-02-17 20:39:00,34.1,26.5,29.59,SSE,161,26.5,29.8,73,0.00,,,0.00,CWS Microserver 1.4,2013-02-18 02:39:00,
2013-02-17 20:44:00,34.3,26.9,29.59,SSE,163,17.6,29.8,74,0.00,,,0.00,CWS Microserver 1.4,2013-02-18 02:44:00,
2013-02-17 20:49:00,34.1,26.6,29.59,SSE,162,18.7,28.0,73,0.00,,,0.00,CWS Microserver 1.4,2013-02-18 02:49:00,
2013-02-17 20:54:00,34.1,26.6,29.59,SSE,166,20.1,27.4,73,0.00,,,0.00,CWS Microserver 1.4,2013-02-18 02:54:00,
2013-02-17 20:59:00,34.1,26.8,29.59,SSE,156,17.3,27.4,74,0.00,,,0.00,CWS Microserver 1.4,2013-02-18 02:59:00,
2013-02-17 21:04:00,34.1,26.5,29.58,South,169,24.3,29.5,73,0.00,,,0.00,CWS Microserver 1.4,2013-02-18 03:04:00,
2013-02-17 21:09:00,34.1,26.7,29.58,SSE,167,20.1,29.5,74,0.00,,,0.00,CWS Microserver 1.4,2013-02-18 03:09:00,
2013-02-17 21:14:00,33.9,26.7,29.58,SSE,167,17.2,27.9,74,0.00,,,0.00,CWS Microserver 1.4,2013-02-18 03:14:00,
2013-02-17 21:19:00,33.9,26.7,29.58,SSE,158,16.4,26.7,74,0.00,,,0.00,CWS Microserver 1.4,2013-02-18 03:19:00,
2013-02-17 21:24:00,34.1,26.9,29.58,SSE,167,12.5,26.9,74,0.00,,,0.00,CWS Microserver 1.4,2013-02-18 03:24:00,
2013-02-17 21:29:00,33.9,26.8,29.58,SSE,163,20.4,26.9,75,0.00,,,0.00,CWS Microserver 1.4,2013-02-18 03:29:00,
2013-02-17 21:34:00,33.9,26.6,29.58,SSE,162,17.8,26.9,74,0.00,,,0.00,CWS Microserver 1.4,2013-02-18 03:34:00,
2013-02-17 21:39:00,33.9,26.7,29.58,SSE,166,19.3,27.0,74,0.00,,,0.00,CWS Microserver 1.4,2013-02-18 03:39:00,
2013-02-17 21:44:00,33.9,26.7,29.57,SSE,167,19.5,27.0,74,0.00,,,0.00,CWS Microserver 1.4,2013-02-18 03:44:00,
2013-02-17 21:49:00,33.9,26.7,29.58,SSE,159,14.2,25.6,74,0.00,,,0.00,CWS Microserver 1.4,2013-02-18 03:49:00,
2013-02-17 21:54:00,34.1,26.6,29.57,South,175,15.1,24.9,73,0.00,,,0.00,CWS Microserver 1.4,2013-02-18 03:54:00,
2013-02-17 21:59:00,34.1,26.6,29.57,SSE,165,21.3,26.2,73,0.00,,,0.00,CWS Microserver 1.4,2013-02-18 03:59:00,
2013-02-17 22:04:00,34.3,26.6,29.57,South,179,21.7,27.7,73,0.00,,,0.00,CWS Microserver 1.4,2013-02-18 04:04:00,
2013-02-17 22:09:00,34.3,26.8,29.57,South,173,15.9,27.9,73,0.00,,,0.00,CWS Microserver 1.4,2013-02-18 04:09:00,
2013-02-17 22:14:00,34.3,26.8,29.57,South,177,14.8,27.9,73,0.00,,,0.00,CWS Microserver 1.4,2013-02-18 04:14:00,
2013-02-17 22:19:00,34.1,26.7,29.57,South,179,13.5,25.0,74,0.00,,,0.00,CWS Microserver 1.4,2013-02-18 04:19:00,
2013-02-17 22:24:00,34.3,26.9,29.57,SSE,168,14.3,23.4,74,0.00,,,0.00,CWS Microserver 1.4,2013-02-18 04:24:00,
2013-02-17 22:29:00,34.1,26.8,29.58,South,189,9.9,23.4,74,0.00,,,0.00,CWS Microserver 1.4,2013-02-18 04:29:00,
2013-02-17 22:34:00,33.9,26.8,29.57,South,170,13.6,20.6,74,0.00,,,0.00,CWS Microserver 1.4,2013-02-18 04:34:00,
2013-02-17 22:39:00,34.3,27.0,29.57,SSE,168,9.5,20.6,74,0.00,,,0.00,CWS Microserver 1.4,2013-02-18 04:39:00,
2013-02-17 22:44:00,34.3,26.9,29.57,SSW,196,6.4,20.6,74,0.00,,,0.00,CWS Microserver 1.4,2013-02-18 04:44:00,
2013-02-17 22:49:00,34.8,27.0,29.57,South,171,10.2,20.4,72,0.00,,,0.00,CWS Microserver 1.4,2013-02-18 04:49:00,
2013-02-17 22:54:00,34.8,26.9,29.57,SSE,161,12.1,20.5,72,0.00,,,0.00,CWS Microserver 1.4,2013-02-18 04:54:00,
2013-02-17 22:59:00,34.7,26.9,29.57,South,178,15.6,20.5,72,0.00,,,0.00,CWS Microserver 1.4,2013-02-18 04:59:00,
2013-02-17 23:04:00,34.7,27.0,29.57,South,177,11.5,19.5,73,0.00,,,0.00,CWS Microserver 1.4,2013-02-18 05:04:00,
2013-02-17 23:09:00,34.5,27.0,29.57,South,182,13.4,19.5,73,0.00,,,0.00,CWS Microserver 1.4,2013-02-18 05:09:00,
2013-02-17 23:14:00,34.7,27.1,29.57,South,182,15.5,19.4,73,0.00,,,0.00,CWS Microserver 1.4,2013-02-18 05:14:00,
2013-02-17 23:19:00,34.7,27.1,29.56,SSE,168,16.3,21.5,73,0.00,,,0.00,CWS Microserver 1.4,2013-02-18 05:19:00,
2013-02-17 23:24:00,34.7,27.1,29.56,South,189,14.2,22.9,73,0.00,,,0.00,CWS Microserver 1.4,2013-02-18 05:24:00,
2013-02-17 23:29:00,34.3,27.0,29.56,South,184,17.3,22.9,74,0.00,,,0.00,CWS Microserver 1.4,2013-02-18 05:29:00,
2013-02-17 23:34:00,34.3,27.0,29.56,South,181,13.7,21.0,74,0.00,,,0.00,CWS Microserver 1.4,2013-02-18 05:34:00,
2013-02-17 23:39:00,34.3,27.1,29.56,South,179,16.1,19.7,74,0.00,,,0.00,CWS Microserver 1.4,2013-02-18 05:39:00,
2013-02-17 23:44:00,34.3,27.2,29.56,South,172,14.3,19.3,75,0.00,,,0.00,CWS Microserver 1.4,2013-02-18 05:44:00,
2013-02-17 23:49:00,34.1,27.1,29.56,South,188,10.9,22.0,75,0.00,,,0.00,CWS Microserver 1.4,2013-02-18 05:49:00,
2013-02-17 23:54:00,33.9,27.2,29.56,South,183,12.3,22.0,76,0.00,,,0.00,CWS Microserver 1.4,2013-02-18 05:54:00,
2013-02-17 23:59:00,33.9,27.3,29.56,South,185,11.2,17.8,76,0.00,,,0.00,CWS Microserver 1.4,2013-02-18 05:59:00,